User: anonymous
Location: Wildcat Hills Observatory
(41.6350°N, 103.6812°W)
Time: 03:04:53
(UTC-06:00)
Language:

Cosmos 1634 Rocket - Orbit

View from above orbital plane
View from above orbital plane
View from above satellite
View from above satellite

Ground track
Ground track

The orbit data is extracted from the following two-line orbital elements,

1 15598U 85022B   14210.45043561 -.00000005  00000-0 -21157-4 0  6917
2 15598 082.9394 170.2980 0022711 172.5729 337.3879 13.76487624475507
Epoch (UTC): 29 July 2014 10:48:37
Eccentricity: 0.0022711
inclination: 82.9394°
perigee height: 959 km
apogee height: 993 km
right ascension of ascending node: 170.2980°
argument of perigee: 172.5729°
revolutions per day: 13.76487624
mean anomaly at epoch: 337.3879°
orbit number at epoch: 47550

The dashed part of the orbit path shows where the satellite is in the earth's shadow,  

DLR